STARLINK-3888, 52454

Orbit data source: Space-Track

STARLINK-3888, 52454 is a payload satellite owned by SpaceX/Seattle (US) in LEO that was launched on Fri, 06 May 2022 UTC via an FALCON 9 launch vehicle from the Air Force Eastern Test Range (AFETR). Payload-class satellites include a variety of spacecraft equipped with specific instruments for various scientific and technological missions. These include communications satellites like Starlink; space stations such as the ISS; scientific satellites like the Hubble; Earth observation satellites from companies like Planet Labs, Umbra, and HawkEye 360; GPS; miniature CubeSats for education and research; and military/defense satellites.

Loading next visibility...
Identifier
52454, 2022-049D
Orbit
LEO
Country
Flag of USUS
Related business
Manufacturer
SpaceX/Seattle
Mission
Operational Commercial Communications
Bus & Motor
STARLINK, Unknown motor
Mass
297 kg wet, ~220 kg dry
Launch date (UTC)
2022-05-06 (4 years ago)
Launch vehicle
FALCON 9
Launch site
Air Force Eastern Test Range (AFETR)
Object type
Payload
Rocket body
Debris
Shape & HBR
Box + 1 Pan, 10.1 m
Radar Cross Section
13.562 m², Large (>1 m²)

Expand to show TLE details & history
Last TLE update: 20 hours ago

TLE from 20 hours ago
0 STARLINK-3888
1 52454U 22049D   25346.60256519  .00010081  00000-0  65042-3 0  9991
2 52454  53.2162 100.0702 0001093  52.7070 307.4021 15.08847361198968
Epoch: 2025-12-12T14:27Z
TLE epoch observation values (Epoch: 2025-12-12T14:27:41.632Z)
Latitude
-0.00007°
Longitude
161.60485°
Altitude
540.159 km
Speed
7.594 km/s
True Right ascension
06h 40m 16s
True Declination
0° 00' 00"
Sunlit
Object was in full shadow at epoch
Visualization orbit readout
Latitude
Unknown
Longitude
Unknown
Altitude
Unknown
Speed
Unknown
Apparent Right ascension
Unknown
Apparent Declination
Unknown
Sunlit
N/A
Visualization observer readout
Local Sidereal Time
09:14:01
Azimuth
Unknown
Elevation
Unknown
Doppler factor
Unknown
Orbital elements
Apogee altitude
540.722 km
Perigee altitude
539.21 km
Semi-major axis
6,918.103 km
Eccentricity
0.00011
Inclination
53.2162°
RAAN
100.0702°
Arg. of periapsis
52.707°
True anomaly
307.39215°
Mean anomaly
307.4021°
Eccentric anomaly
307.39712°
Mean motion
3.77192 °/min
Orbital period
95.44 mins
BSTAR
0.00065042
Loading maneuver chart data...
Computing Atmospheric mass density...
Loading historical data...
Loading historical data...
Loading historical data...
Loading historical data...
Loading historical data...
Loading historical data...
Loading historical data...

Documentation

Showing up to 5 results
|